Airfield :
LOGIN :

Register | Disclaimer

   EN    FR    IT 

 










Legend :    VFR   Marginal VFR   IFR   Intensive IFR   Very Intensive IFR
Visi :
Ceiling :
>= 8 km
>= 3000ft
5 to 8 km
1000 to 3000 ft
1500m to 5 km
500 to 1000 ft
800 to 1500m
200 to 500 ft
< 800m
< 200 ft
Symbols :   Thunderstorms  Fog  Heavy snow  Heavy precipitations  Wind > 20 kt
SIGMETs :     Misc.  Thunderstorms  Icing  Turbulence  Mountain Waves  Volcanic Ashes







- Airport Elevation : 93 ft
- IATA code : XRY


LEJR - Jerez

CURRENT METAR :
  • 251400Z 15011G21KT 100V200 CAVOK 36/13 Q1017

EXPIRED METARs :
  • 251330Z 16010KT 110V210 CAVOK 36/13 Q1018
  • 251300Z 15010KT 100V200 CAVOK 35/12 Q1018
  • 251230Z 16009KT 110V220 CAVOK 36/12 Q1018
  • 251200Z 10006KT 050V150 CAVOK 36/10 Q1019
  • 251130Z 16002KT CAVOK 35/08 Q1019

TAF TAF LEJR
Valid from the 25 at 12:00 until the 26 at 12:00 UTC


251100Z 2512/2612 13009KT CAVOK TX36/2514Z TN23/2606Z
No reported NOTAMs for that airfield.



MET'MAP, your aeronautical weather chart ! - Copyright ORBIFLY December 2007 - Disclaimer

ORBIFLY MET'MAP TEAM :

Programming & Development : Alexandra Zaïnal
Concept & Development : Baudouin d'Aumeries
Co-Development & Prog : Marc-Olivier Méhu
Technical & hardware support : Manuel Goepfert

Contact : metmap@orbifly.com




SOURCES & CREDITS :

   NOAA